Temperature
8 8 8 8 8 8 8 8 8 8 8 8 7 7 8 7 7 7 7 7 7 7 7 7 7 7 7 7 7 7 7 7 7 7 7 7 7 7 7 7 7 7 7
8 8 8 8 8 8 8 8 7 7 7 7 7 7 7 7 7 7 7 7 6 6 6 6 6 6 6 6 6 6 6 6 6 6 6 5 6 6 6 6 6 6 6
8 8 8 8 8 7 7 7 7 7 7 7 6 6 6 6 6 6 6 6 6 6 6 6 6 6 6 6 6 6 6 6 6 5 5 5 5 5 5 6 6 6 6
7 7 7 8 7 7 7 7 7 7 6 6 6 6 6 6 6 6 6 6 6 6 5 5 5 5 5 5 5 5 5 5 5 5 5 5 5 4 4 5 5 5 5
7 7 7 7 7 7 7 6 6 6 6 6 6 6 6 5 5 5 5 5 5 5 5 5 5 5 5 4 4 4 4 4 4 4 4 4 4 4 4 4 4 5 5
7 7 6 6 6 6 6 6 6 6 6 6 6 5 5 5 5 5 5 5 5 5 5 4 4 4 4 4 4 4 4 4 4 4 4 4 3 3 3 3 3 4 4
6 6 6 6 6 6 6 6 6 6 6 5 5 5 5 5 5 5 4 4 4 4 4 4 4 4 4 4 3 3 3 3 3 3 3 3 3 3 3 2 2 2 3
6 6 6 6 6 6 5 5 5 5 5 5 5 5 5 4 4 4 4 4 4 4 4 4 3 3 3 3 3 3 3 3 3 3 2 2 2 2 2 2 2 1 1
6 6 6 6 5 5 5 5 5 5 5 5 5 4 4 4 4 4 3 3 3 3 3 3 3 3 3 3 3 3 3 3 2 2 2 2 2 2 2 2 1 1 0
5 5 5 5 5 5 5 5 5 5 5 4 4 4 4 4 4 3 3 3 3 3 3 3 3 3 3 2 2 2 2 2 2 2 2 2 2 2 2 1 1 1 1
5 5 5 5 5 4 4 4 4 4 4 4 4 4 3 3 3 3 3 3 3 2 2 2 2 2 2 2 2 2 2 2 2 1 1 1 2 1 1 1 1 0 0
5 5 4 4 4 4 4 4 4 4 4 4 3 3 3 3 3 3 2 2 2 2 2 2 2 2 2 2 2 1 1 1 1 1 1 1 1 1 1 1 0 0 0
4 4 4 4 4 4 4 4 4 4 4 3 3 3 3 3 3 2 2 2 2 2 2 2 1 1 1 1 1 1 1 1 1 1 1 1 0 0 0 0 -0 -0 -0
4 4 4 4 3 3 4 4 4 3 3 3 3 3 2 2 2 2 2 2 1 1 1 1 1 1 1 1 1 1 1 1 1 1 0 0 0 0 -0 -0 -0 -0 -0
4 4 3 3 3 3 3 3 3 3 3 3 3 2 2 2 2 2 1 1 1 1 1 1 1 1 1 1 1 1 0 0 0 0 0 0 -0 -0 -1 -1 -1 -1 -1
3 3 3 3 3 3 3 3 3 3 3 3 2 2 2 2 2 2 1 1 1 1 1 1 0 0 0 0 0 0 0 0 -0 -0 -0 -0 -0 -1 -1 -1 -1 -1 -1
3 3 3 2 2 2 2 2 3 3 2 2 2 2 2 1 1 1 1 1 0 0 0 0 0 0 0 -0 -0 -0 -0 -0 -0 -0 -0 -1 -1 -1 -1 -1 -1 -1 -1
3 2 2 2 2 2 2 2 2 2 2 2 2 1 1 1 1 1 1 0 0 -0 -0 -0 -0 -0 -0 -0 -1 -1 -1 -1 -1 -1 -1 -1 -1 -1 -1 -1 -1 -1 -1
3 2 2 2 2 2 2 2 2 2 2 2 1 1 1 1 1 0 0 0 -0 -0 -0 -1 -1 -1 -1 -1 -1 -1 -1 -1 -1 -1 -1 -1 -1 -1 -2 -2 -2 -2 -1
2 2 2 2 2 1 1 1 1 1 1 1 1 1 0 0 0 0 -0 -0 -0 -0 -1 -1 -1 -1 -1 -1 -1 -1 -2 -2 -2 -2 -2 -2 -2 -2 -2 -2 -2 -2 -2
2 2 2 1 1 1 1 1 1 1 1 1 1 0 0 -0 -0 -0 -0 -1 -1 -1 -1 -1 -2 -2 -1 -2 -2 -2 -2 -2 -3 -3 -2 -2 -2 -2 -3 -3 -3 -2 -2
2 1 1 1 1 1 1 1 1 1 0 0 0 -0 -0 -0 -1 -1 -1 -1 -1 -1 -1 -2 -2 -2 -2 -2 -2 -2 -2 -3 -3 -3 -3 -3 -3 -3 -3 -3 -3 -3 -3
1 1 1 1 1 0 0 0 0 0 0 -0 -0 -0 -1 -1 -1 -1 -1 -1 -1 -2 -2 -2 -2 -2 -2 -2 -3 -3 -3 -3 -3 -3 -3 -3 -3 -3 -3 -3 -3 -3 -3
1 1 0 0 0 0 0 0 0 -0 -0 -0 -0 -1 -1 -1 -1 -1 -1 -1 -1 -2 -2 -2 -2 -3 -3 -3 -3 -3 -3 -3 -3 -3 -3 -3 -3 -3 -3 -3 -4 -3 -3
0 0 0 0 0 0 0 -0 -0 -1 -1 -1 -1 -1 -1 -1 -1 -1 -2 -2 -2 -2 -3 -3 -3 -3 -3 -3 -3 -3 -3 -3 -3 -4 -4 -4 -4 -4 -4 -4 -4 -4 -4
0 -0 -0 -0 -0 -0 -0 -0 -1 -1 -1 -1 -1 -1 -1 -1 -2 -2 -2 -2 -2 -2 -3 -3 -3 -3 -3 -3 -3 -3 -3 -4 -4 -4 -4 -4 -4 -4 -4 -4 -4 -4 -4
Wind_Speed
5 3 3 2 2 2 2 3 3 3 3 2 2 1 2 2 1 1 2 2 2 2 2 2 1 1 1 1 1 1 1 1 1 1 2 3 2 2 1 1 1 1 1
3 3 2 2 3 4 4 4 4 4 4 3 2 1 1 1 2 1 2 2 2 2 3 3 2 2 1 1 1 0 1 1 0 0 0 2 3 2 1 1 1 1 1
6 5 4 3 3 4 4 4 4 4 4 3 2 1 1 1 0 1 1 2 2 2 2 3 2 2 2 2 2 2 2 1 1 1 1 1 3 3 2 1 1 1 1
5 5 4 4 4 5 4 4 4 4 3 3 3 3 2 3 3 2 2 2 2 2 2 3 2 2 2 2 3 2 2 2 2 1 1 2 2 1 2 2 1 2 2
5 5 5 6 5 4 3 3 3 3 3 3 4 4 3 3 1 1 2 2 2 2 2 2 2 2 2 2 3 2 3 2 3 2 1 1 1 1 2 3 3 3 2
5 4 4 4 3 3 3 3 3 3 3 4 4 5 5 3 2 2 2 2 2 2 2 2 2 2 2 3 3 3 3 3 3 2 2 2 1 2 2 3 3 4 4
4 4 4 3 3 3 3 3 4 4 4 4 4 5 5 5 5 4 3 3 2 2 3 3 2 2 3 3 3 2 3 3 3 3 2 2 2 2 2 2 3 3 4
4 5 5 5 4 4 4 4 4 4 4 4 5 4 4 4 4 4 3 4 3 3 3 3 3 3 3 3 2 2 2 2 3 3 3 2 3 2 2 2 2 3 4
5 5 4 4 4 4 5 5 5 4 4 4 4 4 4 4 4 3 3 3 3 3 3 3 3 3 3 3 2 2 2 2 3 3 3 3 3 2 2 2 3 3 4
4 4 3 3 3 4 4 4 4 5 4 4 4 3 4 4 4 3 3 3 3 2 2 3 3 3 3 3 3 2 2 3 3 3 3 3 3 2 2 2 3 3 4
5 4 4 3 3 3 3 3 3 3 3 4 4 4 4 4 4 3 4 3 3 3 3 3 3 3 3 3 3 3 3 4 3 3 3 3 3 3 2 3 3 3 3
4 4 4 3 3 3 3 3 3 4 4 4 4 4 3 3 4 4 4 3 3 3 3 3 3 3 3 3 3 4 4 4 4 4 4 4 3 4 3 3 4 4 4
4 4 4 4 4 4 3 3 4 4 4 3 4 4 3 4 4 4 4 3 3 3 3 3 3 3 3 3 3 4 4 4 5 5 5 5 4 5 4 4 4 4 4
5 5 5 5 4 4 4 3 4 4 3 3 4 4 5 5 5 4 4 4 4 4 4 3 3 4 4 3 3 3 3 4 4 4 5 5 5 6 5 5 4 3 3
6 6 6 5 5 4 4 3 4 3 3 3 4 5 5 4 4 4 4 4 4 4 4 4 3 3 3 4 3 3 3 3 3 3 4 5 6 6 5 4 3 3 3
7 7 6 5 5 5 4 4 4 3 3 4 5 4 4 4 4 4 4 4 4 4 3 4 4 4 4 5 5 4 3 3 3 4 4 4 6 7 7 6 5 4 4
7 7 6 6 6 5 5 5 4 3 3 4 4 4 4 4 4 4 4 4 4 4 4 4 4 4 5 6 5 5 3 3 4 4 4 4 5 5 4 5 5 5 6
7 6 5 5 5 4 4 3 3 3 4 4 4 4 4 4 4 4 5 4 4 4 4 4 4 4 5 6 5 5 3 3 4 4 4 5 5 5 4 3 2 3 4
6 6 5 5 4 4 4 3 3 3 4 5 5 5 4 4 4 5 5 4 4 4 4 4 4 4 5 6 6 5 2 3 4 4 4 4 4 6 4 2 3 3 3
3 3 3 2 3 4 3 3 4 4 5 6 5 5 4 5 5 5 5 4 4 4 4 4 4 4 4 6 6 5 2 3 3 3 3 5 5 5 4 3 3 4 3
3 3 2 3 4 3 2 3 4 6 6 5 4 4 4 5 5 4 4 3 3 3 3 4 3 4 4 5 6 5 3 3 2 3 3 3 5 5 4 3 3 4 2
3 2 2 3 3 3 3 4 5 5 3 3 3 4 4 4 3 4 3 3 3 3 3 3 3 3 3 4 5 6 5 3 3 3 3 3 4 4 3 3 2 2 1
3 2 2 3 4 3 3 5 5 3 3 3 3 3 3 3 3 4 4 3 3 3 3 3 3 3 2 3 5 5 5 4 3 2 3 3 3 3 2 2 2 1 0
3 2 2 3 4 4 3 4 4 2 2 3 3 2 2 2 2 2 3 3 3 3 4 3 3 3 2 2 2 2 3 3 2 1 1 2 2 1 1 1 1 0 1
3 2 3 4 5 4 3 3 3 2 2 3 2 2 2 2 2 2 2 3 3 4 4 4 3 3 4 4 4 3 2 2 2 1 0 0 0 0 0 0 0 0 1
3 3 4 4 4 4 4 2 2 2 3 2 2 2 2 2 2 2 2 3 3 5 5 5 4 4 4 4 4 4 3 3 3 2 1 1 1 1 1 1 1 1 1
Wind_Direction
260 254 244 218 184 179 180 191 194 191 170 167 176 195 224 233 228 232 238 238 235 214 200 214 206 217 207 230 234 249 299 309 295 326 321 314 289 274 268 266 259 281 316
265 255 244 215 197 198 199 197 201 197 191 194 193 198 201 219 226 239 248 244 237 229 211 204 208 219 212 234 251 241 222 280 314 198 330 319 315 297 284 271 251 271 324
236 241 236 229 213 209 209 211 208 201 198 185 147 91 72 50 95 266 251 252 237 230 226 218 205 210 206 221 238 230 195 223 255 239 187 205 249 296 292 265 266 274 283
233 233 231 233 225 222 215 209 207 200 194 175 170 170 187 216 226 234 238 260 242 230 227 219 209 215 217 219 231 229 220 205 232 257 254 232 215 218 296 297 287 288 283
228 226 225 225 229 225 213 209 201 199 193 185 183 185 204 221 226 230 223 243 258 241 231 225 217 222 229 228 227 227 223 218 216 215 227 247 270 228 230 277 298 302 279
229 227 226 220 231 224 210 202 198 206 201 193 192 195 206 212 211 222 222 240 258 255 248 242 233 233 234 235 232 225 221 221 219 217 215 212 222 235 229 250 277 288 291
229 230 228 225 230 226 212 206 203 214 209 201 205 208 210 209 212 218 221 228 244 256 248 247 243 246 240 239 232 227 230 220 217 218 230 230 233 227 230 241 266 286 296
247 242 233 226 225 224 211 207 210 217 212 207 216 216 211 211 221 223 223 225 232 237 237 235 242 244 238 235 224 232 231 220 215 224 227 234 241 228 226 221 239 287 291
266 258 251 233 224 226 218 211 211 216 217 214 218 218 216 216 223 226 228 232 238 241 237 234 236 245 241 230 217 226 232 217 209 219 226 232 233 227 234 234 215 223 268
287 279 268 249 242 233 227 217 213 215 218 214 216 225 222 222 221 222 229 235 240 239 230 235 235 238 238 227 217 221 226 217 219 220 221 231 232 228 226 236 234 231 240
280 278 277 273 274 261 232 224 220 218 222 221 218 222 225 221 216 222 231 230 231 227 226 230 232 234 235 229 218 219 220 215 223 229 224 237 234 234 235 242 236 236 238
276 275 274 277 274 256 238 229 224 224 226 220 215 219 221 215 217 226 234 228 225 226 228 224 232 235 234 230 221 226 225 218 220 228 227 236 234 237 236 240 238 239 240
288 288 279 273 266 255 242 234 231 229 225 213 210 218 221 219 223 227 228 225 223 228 236 224 229 237 235 232 228 224 225 224 222 224 226 235 233 238 238 244 241 241 248
279 279 282 278 266 257 246 242 242 232 223 214 214 222 228 226 227 227 227 228 225 224 228 229 233 237 232 227 227 224 227 230 230 230 229 233 233 237 236 241 239 239 247
278 270 272 267 261 260 257 247 247 236 220 218 224 229 233 230 226 224 228 229 229 231 229 227 236 242 234 225 218 215 222 226 238 241 239 239 244 247 246 251 237 227 238
276 277 268 260 254 248 246 244 247 242 216 217 228 229 228 227 224 222 224 225 231 236 231 228 231 240 245 244 228 213 216 226 235 247 251 248 245 250 253 260 257 242 234
272 268 258 251 249 245 235 231 237 237 225 224 229 226 223 227 227 221 220 226 229 234 237 238 235 242 252 246 236 221 206 219 233 240 247 254 252 250 245 253 260 260 258
267 260 252 254 253 246 241 238 229 224 228 230 231 228 225 231 228 219 222 228 228 226 235 241 238 245 254 252 242 228 213 221 235 238 239 247 255 246 232 225 250 260 259
257 255 249 247 247 244 235 228 231 228 230 231 231 228 222 226 224 224 227 228 225 231 236 239 235 239 253 253 245 230 215 230 247 250 247 249 250 247 242 215 239 265 268
268 267 273 263 251 248 226 217 233 232 237 235 232 227 221 220 224 229 231 231 226 229 234 245 237 234 243 251 247 228 210 229 245 255 252 257 259 255 250 212 219 245 258
282 280 274 269 262 255 223 232 239 242 243 232 225 226 223 221 223 226 229 222 222 223 231 243 245 238 242 250 247 238 213 217 236 252 255 255 262 268 268 249 227 247 262
288 282 273 277 278 255 222 243 250 252 238 214 219 229 228 224 219 212 222 214 207 220 237 245 251 248 244 247 248 246 241 227 218 240 253 255 258 265 269 261 264 276 274
276 274 265 279 285 267 230 241 255 251 224 205 219 230 229 225 215 209 214 215 209 217 233 231 239 247 243 246 247 250 249 241 227 232 252 260 264 264 261 280 296 290 211
279 280 276 277 284 281 254 243 254 241 212 218 226 223 219 230 224 214 210 210 211 216 224 227 234 242 242 236 233 231 238 235 241 255 260 284 283 295 320 309 307 288 246
279 270 255 267 278 287 273 257 237 210 218 228 227 225 218 216 223 219 218 219 221 219 221 224 221 224 241 242 228 211 212 209 211 190 156 95 120 80 357 341 333 283 284
269 272 270 269 277 282 278 267 240 206 207 228 224 220 219 218 215 231 271 258 246 254 246 238 232 237 243 246 227 225 227 220 197 170 174 201 215 222 231 240 255 262 268
Height
1470 1472 1473 1474 1475 1475 1476 1477 1478 1479 1479 1480 1480 1481 1481 1482 1483 1483 1484 1484 1484 1484 1484 1484 1484 1484 1484 1485 1485 1485 1485 1485 1485 1485 1483 1483 1483 1483 1483 1484 1484 1484 1484
1467 1468 1469 1470 1471 1472 1473 1474 1474 1475 1476 1477 1478 1478 1478 1479 1479 1480 1480 1480 1481 1481 1481 1480 1480 1481 1481 1481 1481 1481 1481 1481 1482 1482 1481 1480 1480 1479 1479 1480 1480 1480 1480
1463 1464 1465 1466 1467 1468 1469 1470 1471 1471 1472 1473 1474 1474 1475 1475 1475 1475 1476 1476 1477 1477 1477 1477 1477 1477 1477 1477 1477 1478 1478 1478 1478 1479 1479 1478 1476 1475 1475 1475 1476 1477 1477
1459 1460 1461 1463 1463 1464 1466 1467 1467 1468 1469 1470 1470 1470 1470 1470 1471 1472 1472 1473 1473 1473 1473 1473 1473 1473 1473 1473 1473 1473 1474 1474 1474 1475 1475 1476 1475 1474 1472 1472 1473 1473 1473
1456 1457 1458 1459 1460 1462 1462 1463 1464 1465 1465 1466 1466 1467 1467 1467 1468 1468 1468 1469 1469 1469 1469 1469 1469 1469 1469 1469 1469 1469 1470 1470 1470 1470 1471 1471 1471 1471 1471 1468 1468 1469 1469
1453 1454 1455 1456 1457 1459 1459 1460 1460 1461 1462 1462 1462 1463 1463 1464 1464 1464 1464 1465 1465 1465 1465 1465 1465 1465 1465 1466 1465 1466 1466 1466 1466 1467 1467 1467 1467 1467 1467 1466 1465 1464 1465
1450 1450 1451 1452 1453 1454 1455 1456 1457 1457 1458 1458 1458 1459 1459 1460 1460 1460 1461 1461 1461 1460 1461 1461 1461 1461 1461 1461 1461 1461 1461 1462 1462 1462 1463 1463 1463 1463 1464 1463 1462 1461 1460
1447 1447 1448 1449 1449 1450 1451 1452 1453 1453 1454 1454 1454 1455 1455 1456 1456 1457 1457 1457 1457 1457 1457 1457 1457 1457 1457 1457 1457 1457 1457 1457 1457 1458 1458 1459 1459 1460 1460 1460 1459 1458 1457
1444 1444 1444 1445 1446 1447 1448 1448 1449 1449 1450 1450 1450 1451 1451 1451 1452 1452 1453 1453 1453 1453 1453 1453 1453 1453 1453 1453 1452 1453 1453 1453 1453 1454 1454 1455 1455 1456 1456 1456 1457 1457 1454
1443 1442 1442 1442 1443 1443 1444 1445 1445 1446 1446 1446 1446 1447 1447 1447 1448 1448 1448 1449 1449 1449 1449 1449 1449 1449 1449 1448 1448 1448 1449 1449 1449 1450 1450 1451 1451 1452 1452 1452 1453 1453 1452
1442 1441 1441 1440 1440 1440 1441 1441 1441 1441 1442 1442 1442 1442 1443 1443 1443 1444 1445 1445 1445 1445 1445 1445 1445 1445 1444 1444 1444 1444 1445 1445 1445 1446 1446 1447 1447 1448 1448 1448 1448 1449 1448
1440 1439 1439 1438 1437 1437 1437 1437 1437 1437 1438 1438 1438 1438 1438 1439 1439 1440 1440 1441 1441 1441 1441 1441 1441 1441 1441 1441 1440 1440 1441 1441 1441 1442 1442 1443 1443 1444 1444 1444 1444 1444 1444
1437 1437 1436 1435 1434 1434 1433 1433 1433 1433 1434 1434 1434 1434 1434 1435 1435 1435 1436 1436 1437 1437 1437 1437 1437 1437 1437 1437 1437 1437 1437 1437 1437 1438 1438 1439 1440 1440 1440 1440 1440 1440 1440
1434 1433 1432 1432 1431 1430 1430 1430 1430 1430 1430 1430 1430 1430 1430 1430 1431 1431 1432 1432 1433 1433 1433 1433 1433 1433 1433 1433 1433 1433 1433 1433 1434 1434 1435 1435 1436 1436 1436 1436 1436 1436 1435
1431 1430 1429 1428 1427 1427 1426 1426 1426 1426 1426 1425 1425 1425 1426 1427 1427 1428 1428 1428 1429 1429 1429 1429 1429 1429 1429 1429 1429 1429 1430 1430 1430 1430 1431 1431 1432 1432 1433 1432 1432 1432 1431
1427 1426 1425 1424 1424 1423 1423 1422 1422 1422 1422 1421 1421 1422 1422 1423 1423 1423 1424 1424 1425 1425 1425 1425 1425 1425 1425 1426 1426 1426 1426 1426 1426 1426 1427 1427 1428 1428 1428 1429 1428 1428 1427
1423 1422 1421 1420 1420 1419 1419 1419 1418 1418 1418 1418 1418 1418 1419 1419 1419 1419 1420 1420 1420 1421 1421 1421 1421 1421 1422 1422 1422 1422 1423 1423 1423 1423 1423 1423 1424 1424 1424 1424 1424 1424 1424
1419 1418 1417 1416 1416 1416 1415 1415 1415 1415 1415 1415 1415 1415 1415 1415 1415 1415 1416 1416 1416 1417 1417 1417 1417 1417 1418 1418 1418 1419 1419 1419 1419 1419 1419 1419 1420 1420 1420 1420 1420 1419 1419
1415 1414 1413 1413 1412 1412 1411 1411 1411 1411 1411 1411 1411 1411 1411 1412 1412 1412 1412 1412 1412 1412 1413 1413 1413 1413 1414 1414 1415 1415 1415 1414 1414 1415 1415 1415 1416 1416 1417 1416 1416 1415 1415
1412 1411 1410 1409 1408 1408 1407 1407 1407 1407 1407 1408 1408 1408 1408 1408 1408 1408 1409 1409 1409 1409 1409 1409 1409 1410 1410 1410 1411 1411 1411 1411 1411 1411 1411 1412 1412 1413 1413 1412 1412 1411 1411
1408 1407 1406 1405 1405 1405 1404 1403 1403 1403 1404 1404 1404 1404 1405 1405 1405 1405 1405 1405 1405 1405 1405 1405 1406 1406 1406 1406 1407 1407 1407 1407 1407 1407 1408 1408 1408 1409 1409 1409 1408 1408 1408
1405 1404 1403 1402 1402 1402 1401 1400 1400 1400 1400 1400 1401 1401 1401 1402 1402 1402 1402 1402 1401 1401 1401 1401 1401 1402 1402 1403 1403 1403 1404 1404 1404 1404 1404 1404 1405 1405 1406 1405 1405 1405 1405
1403 1402 1401 1400 1399 1399 1398 1397 1397 1397 1397 1397 1397 1397 1398 1398 1398 1398 1398 1398 1398 1397 1398 1398 1398 1398 1399 1399 1400 1400 1401 1401 1401 1401 1402 1402 1402 1402 1402 1402 1402 1402 1402
1400 1399 1398 1397 1396 1396 1395 1394 1394 1394 1393 1393 1394 1394 1394 1394 1394 1394 1394 1394 1394 1394 1395 1394 1394 1395 1395 1396 1396 1397 1398 1398 1398 1399 1399 1399 1399 1399 1399 1400 1400 1400 1400
1397 1397 1396 1394 1393 1393 1392 1392 1391 1391 1390 1390 1391 1391 1391 1391 1391 1391 1391 1391 1392 1392 1392 1392 1392 1392 1391 1392 1393 1394 1394 1394 1395 1396 1396 1396 1396 1396 1397 1397 1397 1397 1398
1394 1394 1393 1392 1391 1390 1389 1389 1389 1388 1388 1388 1388 1388 1388 1388 1388 1388 1388 1388 1389 1389 1389 1389 1389 1389 1390 1390 1390 1391 1391 1392 1393 1393 1393 1393 1394 1394 1394 1394 1395 1395 1395